Time,TemperatureF,DewpointF,PressureIn,WindDirection,WindDirectionDegrees,WindSpeedMPH,WindSpeedGustMPH,Humidity,HourlyPrecipIn,Conditions,Clouds,dailyrainin,SoftwareType,DateUTC
2013-06-22 00:01:00,68.7,59.4,30.16,SW,217,0.0,1.0,72,0.00,,,0.00,meteohub,2013-06-22 04:01:00,
2013-06-22 00:02:00,68.5,59.2,30.16,SW,217,0.0,1.0,72,0.00,,,0.00,meteohub,2013-06-22 04:02:00,
2013-06-22 00:07:00,68.5,59.5,30.16,SW,217,0.0,1.0,73,0.00,,,0.00,meteohub,2013-06-22 04:07:00,
2013-06-22 00:12:00,68.4,59.4,30.16,SW,217,0.0,1.0,73,0.00,,,0.00,meteohub,2013-06-22 04:12:00,
2013-06-22 00:17:00,68.2,59.5,30.16,SW,217,0.0,1.0,74,0.00,,,0.00,meteohub,2013-06-22 04:17:00,
2013-06-22 00:22:00,68.0,59.0,30.16,SW,217,0.0,1.0,73,0.00,,,0.00,meteohub,2013-06-22 04:22:00,
2013-06-22 00:27:00,68.2,59.2,30.17,SW,217,0.0,1.0,73,0.00,,,0.00,meteohub,2013-06-22 04:27:00,
2013-06-22 00:32:00,68.2,59.2,30.16,SW,217,0.0,1.0,73,0.00,,,0.00,meteohub,2013-06-22 04:32:00,
2013-06-22 00:37:00,68.2,58.8,30.17,SW,217,0.0,1.0,72,0.00,,,0.00,meteohub,2013-06-22 04:37:00,
2013-06-22 00:42:00,68.2,58.8,30.17,SW,217,0.0,1.0,72,0.00,,,0.00,meteohub,2013-06-22 04:42:00,
2013-06-22 00:47:00,68.2,59.2,30.17,SW,217,0.0,2.0,73,0.00,,,0.00,meteohub,2013-06-22 04:47:00,
2013-06-22 00:52:00,68.2,59.2,30.17,SW,217,1.0,2.0,73,0.00,,,0.00,meteohub,2013-06-22 04:52:00,
2013-06-22 00:57:00,68.2,59.2,30.17,SW,217,0.0,2.0,73,0.00,,,0.00,meteohub,2013-06-22 04:57:00,
2013-06-22 01:02:00,68.4,59.4,30.17,SW,217,0.0,2.0,73,0.00,,,0.00,meteohub,2013-06-22 05:02:00,
2013-06-22 01:07:00,68.4,59.4,30.17,SW,217,0.0,2.0,73,0.00,,,0.00,meteohub,2013-06-22 05:07:00,
2013-06-22 01:12:00,68.4,59.0,30.16,SW,217,0.0,1.0,72,0.00,,,0.00,meteohub,2013-06-22 05:12:00,
2013-06-22 01:17:00,68.5,59.2,30.16,SW,217,0.0,1.0,72,0.00,,,0.00,meteohub,2013-06-22 05:17:00,
2013-06-22 01:22:00,68.5,59.5,30.16,SW,217,1.0,1.0,73,0.00,,,0.00,meteohub,2013-06-22 05:22:00,
2013-06-22 01:27:00,68.5,59.2,30.17,SW,217,0.0,2.0,72,0.00,,,0.00,meteohub,2013-06-22 05:27:00,
2013-06-22 01:32:00,68.5,59.2,30.17,SW,217,0.0,2.0,72,0.00,,,0.00,meteohub,2013-06-22 05:32:00,
2013-06-22 01:37:00,68.5,58.8,30.17,SW,217,0.0,2.0,71,0.00,,,0.00,meteohub,2013-06-22 05:37:00,
2013-06-22 01:42:00,68.4,59.0,30.17,SW,217,0.0,1.0,72,0.00,,,0.00,meteohub,2013-06-22 05:42:00,
2013-06-22 01:47:00,68.2,58.5,30.16,SW,217,0.0,1.0,71,0.00,,,0.00,meteohub,2013-06-22 05:47:00,
2013-06-22 01:52:00,67.8,58.5,30.16,SW,217,0.0,1.0,72,0.00,,,0.00,meteohub,2013-06-22 05:52:00,
2013-06-22 01:57:00,67.5,58.5,30.16,SW,217,0.0,1.0,73,0.00,,,0.00,meteohub,2013-06-22 05:57:00,
2013-06-22 02:02:00,67.1,58.5,30.16,SW,217,1.0,1.0,74,0.00,,,0.00,meteohub,2013-06-22 06:02:00,
2013-06-22 02:07:00,66.7,58.1,30.16,SW,217,0.0,1.0,74,0.00,,,0.00,meteohub,2013-06-22 06:07:00,
2013-06-22 02:12:00,66.6,58.1,30.15,SW,217,0.0,1.0,74,0.00,,,0.00,meteohub,2013-06-22 06:12:00,
2013-06-22 02:17:00,66.6,58.1,30.15,SW,217,2.0,2.0,74,0.00,,,0.00,meteohub,2013-06-22 06:17:00,
2013-06-22 02:22:00,66.7,58.1,30.15,SW,217,0.0,2.0,74,0.00,,,0.00,meteohub,2013-06-22 06:22:00,
2013-06-22 02:27:00,66.7,58.1,30.14,SW,217,0.0,2.0,74,0.00,,,0.00,meteohub,2013-06-22 06:27:00,
2013-06-22 02:32:00,66.6,58.1,30.14,SW,217,0.0,2.0,74,0.00,,,0.00,meteohub,2013-06-22 06:32:00,
2013-06-22 02:37:00,66.6,58.8,30.14,SW,217,0.0,1.0,76,0.00,,,0.00,meteohub,2013-06-22 06:37:00,
2013-06-22 02:42:00,66.4,58.3,30.14,SW,217,0.0,1.0,75,0.00,,,0.00,meteohub,2013-06-22 06:42:00,
2013-06-22 02:47:00,66.4,58.6,30.14,SW,217,0.0,1.0,76,0.00,,,0.00,meteohub,2013-06-22 06:47:00,
2013-06-22 02:52:00,66.6,58.5,30.14,SW,217,0.0,1.0,75,0.00,,,0.00,meteohub,2013-06-22 06:52:00,
2013-06-22 02:57:00,66.6,58.5,30.14,SW,217,0.0,1.0,75,0.00,,,0.00,meteohub,2013-06-22 06:57:00,
2013-06-22 03:02:00,66.7,58.6,30.13,SW,217,0.0,1.0,75,0.00,,,0.00,meteohub,2013-06-22 07:02:00,
2013-06-22 03:07:00,66.7,58.6,30.13,SW,217,0.0,1.0,75,0.00,,,0.00,meteohub,2013-06-22 07:07:00,
2013-06-22 03:12:00,66.7,58.6,30.13,SW,217,0.0,2.0,75,0.00,,,0.00,meteohub,2013-06-22 07:12:00,
2013-06-22 03:17:00,66.7,58.6,30.13,SW,217,0.0,2.0,75,0.00,,,0.00,meteohub,2013-06-22 07:17:00,
2013-06-22 03:22:00,66.7,58.6,30.13,SW,217,0.0,2.0,75,0.00,,,0.00,meteohub,2013-06-22 07:22:00,
2013-06-22 03:27:00,66.7,58.6,30.13,SW,217,0.0,1.0,75,0.00,,,0.00,meteohub,2013-06-22 07:27:00,
2013-06-22 03:32:00,66.7,58.6,30.13,SW,217,0.0,1.0,75,0.00,,,0.00,meteohub,2013-06-22 07:32:00,
2013-06-22 03:37:00,66.7,58.6,30.12,SW,217,0.0,1.0,75,0.00,,,0.00,meteohub,2013-06-22 07:37:00,
2013-06-22 03:42:00,66.7,58.1,30.13,SW,217,0.0,1.0,74,0.00,,,0.00,meteohub,2013-06-22 07:42:00,
2013-06-22 03:47:00,66.7,58.1,30.13,SW,217,0.0,1.0,74,0.00,,,0.00,meteohub,2013-06-22 07:47:00,
2013-06-22 03:52:00,66.6,58.1,30.13,SW,217,0.0,1.0,74,0.00,,,0.00,meteohub,2013-06-22 07:52:00,
2013-06-22 03:57:00,66.6,58.1,30.13,SW,217,0.0,1.0,74,0.00,,,0.00,meteohub,2013-06-22 07:57:00,
2013-06-22 04:02:00,66.4,57.9,30.12,SW,217,0.0,1.0,74,0.00,,,0.00,meteohub,2013-06-22 08:02:00,
2013-06-22 04:07:00,66.6,58.1,30.12,SW,217,1.0,1.0,74,0.00,,,0.00,meteohub,2013-06-22 08:07:00,
2013-06-22 04:12:00,66.6,58.1,30.12,West,269,0.0,3.0,74,0.00,,,0.00,meteohub,2013-06-22 08:12:00,
2013-06-22 04:17:00,66.7,58.1,30.12,West,275,0.0,3.0,74,0.00,,,0.00,meteohub,2013-06-22 08:17:00,
2013-06-22 04:22:00,66.9,57.9,30.12,NW,304,2.0,4.0,73,0.00,,,0.00,meteohub,2013-06-22 08:22:00,
2013-06-22 04:27:00,67.3,57.9,30.11,NW,308,1.0,5.0,72,0.00,,,0.00,meteohub,2013-06-22 08:27:00,
2013-06-22 04:32:00,67.5,58.1,30.11,WNW,296,1.0,6.0,72,0.00,,,0.00,meteohub,2013-06-22 08:32:00,
2013-06-22 04:37:00,67.6,57.9,30.11,WNW,296,1.0,6.0,71,0.00,,,0.00,meteohub,2013-06-22 08:37:00,
2013-06-22 04:42:00,67.6,57.9,30.11,WNW,298,3.0,6.0,71,0.00,,,0.00,meteohub,2013-06-22 08:42:00,
2013-06-22 04:47:00,67.8,58.1,30.11,NW,309,1.0,4.0,71,0.00,,,0.00,meteohub,2013-06-22 08:47:00,
2013-06-22 04:52:00,68.2,58.1,30.11,NW,317,0.0,6.0,70,0.00,,,0.00,meteohub,2013-06-22 08:52:00,
2013-06-22 04:57:00,68.2,58.1,30.11,WNW,290,2.0,6.0,70,0.00,,,0.00,meteohub,2013-06-22 08:57:00,
2013-06-22 05:02:00,68.4,58.3,30.10,WNW,300,1.0,6.0,70,0.00,,,0.00,meteohub,2013-06-22 09:02:00,
2013-06-22 05:07:00,68.4,58.3,30.10,NW,313,1.0,6.0,70,0.00,,,0.00,meteohub,2013-06-22 09:07:00,
2013-06-22 05:12:00,68.4,58.3,30.10,NW,323,1.0,7.0,70,0.00,,,0.00,meteohub,2013-06-22 09:12:00,
2013-06-22 05:17:00,68.5,58.3,30.10,NW,319,3.0,7.0,70,0.00,,,0.00,meteohub,2013-06-22 09:17:00,
2013-06-22 05:22:00,68.5,58.3,30.10,NW,319,0.0,6.0,70,0.00,,,0.00,meteohub,2013-06-22 09:22:00,
2013-06-22 05:27:00,68.4,58.6,30.10,NW,308,2.0,6.0,71,0.00,,,0.00,meteohub,2013-06-22 09:27:00,
2013-06-22 05:33:00,68.2,58.5,30.10,NW,310,1.0,6.0,71,0.00,,,0.00,meteohub,2013-06-22 09:33:00,
2013-06-22 05:38:00,68.2,58.5,30.11,NW,317,1.0,4.0,71,0.00,,,0.00,meteohub,2013-06-22 09:38:00,
2013-06-22 05:43:00,68.0,58.6,30.11,NW,312,0.0,6.0,72,0.00,,,0.00,meteohub,2013-06-22 09:43:00,
2013-06-22 05:48:00,67.8,58.5,30.11,NNW,342,1.0,6.0,72,0.00,,,0.00,meteohub,2013-06-22 09:48:00,
2013-06-22 05:53:00,67.6,58.3,30.11,WNW,303,2.0,6.0,72,0.00,,,0.00,meteohub,2013-06-22 09:53:00,
2013-06-22 05:58:00,67.6,58.6,30.11,NW,311,3.0,4.0,73,0.00,,,0.00,meteohub,2013-06-22 09:58:00,
2013-06-22 06:03:00,67.6,58.6,30.11,WNW,293,2.0,4.0,73,0.00,,,0.00,meteohub,2013-06-22 10:03:00,
2013-06-22 06:08:00,67.6,58.6,30.12,WNW,302,1.0,4.0,73,0.00,,,0.00,meteohub,2013-06-22 10:08:00,
2013-06-22 06:13:00,67.8,58.8,30.12,WNW,303,1.0,4.0,73,0.00,,,0.00,meteohub,2013-06-22 10:13:00,
2013-06-22 06:18:00,67.8,58.8,30.12,WNW,292,2.0,4.0,73,0.00,,,0.00,meteohub,2013-06-22 10:18:00,
2013-06-22 06:23:00,68.0,59.0,30.12,WNW,290,4.0,4.0,73,0.00,,,0.00,meteohub,2013-06-22 10:23:00,
2013-06-22 06:28:00,68.2,59.2,30.11,WNW,299,1.0,4.0,73,0.00,,,0.00,meteohub,2013-06-22 10:28:00,
2013-06-22 06:33:00,68.4,59.4,30.11,NW,316,3.0,4.0,73,0.00,,,0.00,meteohub,2013-06-22 10:33:00,
2013-06-22 06:38:00,68.2,59.5,30.12,West,279,0.0,4.0,74,0.00,,,0.00,meteohub,2013-06-22 10:38:00,
2013-06-22 06:43:00,68.0,59.7,30.12,West,279,0.0,4.0,75,0.00,,,0.00,meteohub,2013-06-22 10:43:00,
2013-06-22 06:48:00,67.5,60.1,30.12,West,279,0.0,4.0,77,0.00,,,0.00,meteohub,2013-06-22 10:48:00,
2013-06-22 06:54:00,66.9,59.9,30.12,West,279,1.0,3.0,78,0.00,,,0.00,meteohub,2013-06-22 10:54:00,
2013-06-22 06:59:00,67.5,60.1,30.12,WNW,298,1.0,2.0,77,0.00,,,0.00,meteohub,2013-06-22 10:59:00,
2013-06-22 07:04:00,67.8,59.9,30.12,WNW,291,1.0,5.0,76,0.00,,,0.00,meteohub,2013-06-22 11:04:00,
2013-06-22 07:09:00,68.4,60.1,30.12,NW,310,1.0,5.0,75,0.00,,,0.00,meteohub,2013-06-22 11:09:00,
2013-06-22 07:14:00,68.7,60.4,30.12,West,264,3.0,7.0,75,0.00,,,0.00,meteohub,2013-06-22 11:14:00,
2013-06-22 07:19:00,69.3,61.0,30.12,WNW,301,4.0,7.0,75,0.00,,,0.00,meteohub,2013-06-22 11:19:00,
2013-06-22 07:24:00,69.6,61.0,30.13,NW,308,4.0,7.0,74,0.00,,,0.00,meteohub,2013-06-22 11:24:00,
2013-06-22 07:29:00,70.0,61.3,30.12,WNW,284,5.0,7.0,74,0.00,,,0.00,meteohub,2013-06-22 11:29:00,
2013-06-22 07:34:00,70.2,61.2,30.12,North,0,2.0,8.0,73,0.00,,,0.00,meteohub,2013-06-22 11:34:00,
2013-06-22 07:39:00,70.5,61.5,30.12,West,268,2.0,8.0,73,0.00,,,0.00,meteohub,2013-06-22 11:39:00,
2013-06-22 07:44:00,71.1,61.9,30.13,NW,313,2.0,8.0,73,0.00,,,0.00,meteohub,2013-06-22 11:44:00,
2013-06-22 07:49:00,71.2,61.7,30.12,West,267,2.0,6.0,72,0.00,,,0.00,meteohub,2013-06-22 11:49:00,
2013-06-22 07:54:00,71.4,62.2,30.13,NNW,327,3.0,5.0,73,0.00,,,0.00,meteohub,2013-06-22 11:54:00,
2013-06-22 08:00:00,71.8,62.2,30.13,NW,306,4.0,7.0,72,0.00,,,0.00,meteohub,2013-06-22 12:00:00,
2013-06-22 08:05:00,72.0,62.1,30.13,NW,313,0.0,8.0,71,0.00,,,0.00,meteohub,2013-06-22 12:05:00,
2013-06-22 08:10:00,72.3,62.4,30.13,WNW,292,1.0,8.0,71,0.00,,,0.00,meteohub,2013-06-22 12:10:00,
2013-06-22 08:15:00,72.5,62.6,30.13,WNW,297,2.0,8.0,71,0.00,,,0.00,meteohub,2013-06-22 12:15:00,
2013-06-22 08:20:00,72.9,63.0,30.13,WNW,302,2.0,8.0,71,0.00,,,0.00,meteohub,2013-06-22 12:20:00,
2013-06-22 08:25:00,73.0,62.6,30.13,WNW,292,2.0,8.0,70,0.00,,,0.00,meteohub,2013-06-22 12:25:00,
2013-06-22 08:30:00,73.2,62.8,30.13,West,271,1.0,7.0,70,0.00,,,0.00,meteohub,2013-06-22 12:30:00,
2013-06-22 08:35:00,73.6,63.1,30.13,WNW,294,4.0,7.0,70,0.00,,,0.00,meteohub,2013-06-22 12:35:00,
2013-06-22 08:40:00,73.8,63.7,30.13,West,277,7.0,9.0,71,0.00,,,0.00,meteohub,2013-06-22 12:40:00,
2013-06-22 08:45:00,74.1,63.7,30.12,NW,315,4.0,9.0,70,0.00,,,0.00,meteohub,2013-06-22 12:45:00,
2013-06-22 08:50:00,74.5,64.4,30.12,NW,326,1.0,9.0,71,0.00,,,0.00,meteohub,2013-06-22 12:50:00,
2013-06-22 08:55:00,74.8,64.4,30.13,WNW,301,1.0,9.0,70,0.00,,,0.00,meteohub,2013-06-22 12:55:00,
2013-06-22 09:01:00,75.0,64.2,30.13,WNW,296,4.0,9.0,69,0.00,,,0.00,meteohub,2013-06-22 13:01:00,
2013-06-22 09:06:00,75.4,64.6,30.13,NNW,346,3.0,10.0,69,0.00,,,0.00,meteohub,2013-06-22 13:06:00,
2013-06-22 09:11:00,75.6,64.8,30.13,WNW,298,1.0,10.0,69,0.00,,,0.00,meteohub,2013-06-22 13:11:00,
2013-06-22 09:16:00,75.7,64.4,30.14,West,277,0.0,10.0,68,0.00,,,0.00,meteohub,2013-06-22 13:16:00,
2013-06-22 09:21:00,75.9,64.6,30.14,WNW,294,3.0,8.0,68,0.00,,,0.00,meteohub,2013-06-22 13:21:00,
2013-06-22 09:26:00,76.3,64.9,30.14,WNW,284,3.0,8.0,68,0.00,,,0.00,meteohub,2013-06-22 13:26:00,
2013-06-22 09:31:00,76.5,65.1,30.14,West,273,4.0,8.0,68,0.00,,,0.00,meteohub,2013-06-22 13:31:00,
2013-06-22 09:36:00,76.6,65.3,30.14,NNW,332,4.0,8.0,68,0.00,,,0.00,meteohub,2013-06-22 13:36:00,
2013-06-22 09:41:00,77.0,65.1,30.14,North,5,2.0,8.0,67,0.00,,,0.00,meteohub,2013-06-22 13:41:00,
2013-06-22 09:46:00,77.4,65.5,30.14,NNW,346,3.0,9.0,67,0.00,,,0.00,meteohub,2013-06-22 13:46:00,
2013-06-22 09:51:00,77.9,65.7,30.14,West,278,3.0,9.0,66,0.00,,,0.00,meteohub,2013-06-22 13:51:00,
2013-06-22 09:56:00,78.1,66.7,30.14,NW,321,2.0,10.0,68,0.00,,,0.00,meteohub,2013-06-22 13:56:00,
2013-06-22 10:01:00,78.4,67.5,30.14,NW,313,3.0,10.0,69,0.00,,,0.00,meteohub,2013-06-22 14:01:00,
2013-06-22 10:06:00,78.8,66.9,30.14,North,0,1.0,10.0,67,0.00,,,0.00,meteohub,2013-06-22 14:06:00,
2013-06-22 10:12:00,79.0,66.2,30.14,NW,307,3.0,8.0,65,0.00,,,0.00,meteohub,2013-06-22 14:12:00,
2013-06-22 10:17:00,79.2,67.3,30.14,WNW,298,3.0,11.0,67,0.00,,,0.00,meteohub,2013-06-22 14:17:00,
2013-06-22 10:22:00,79.3,66.9,30.14,NW,314,5.0,11.0,66,0.00,,,0.00,meteohub,2013-06-22 14:22:00,
2013-06-22 10:27:00,79.7,67.3,30.14,West,275,2.0,11.0,66,0.00,,,0.00,meteohub,2013-06-22 14:27:00,
2013-06-22 10:32:00,79.9,66.6,30.14,NNW,338,4.0,9.0,64,0.00,,,0.00,meteohub,2013-06-22 14:32:00,
2013-06-22 10:37:00,79.9,67.1,30.14,North,355,3.0,9.0,65,0.00,,,0.00,meteohub,2013-06-22 14:37:00,
2013-06-22 10:42:00,79.9,67.1,30.14,NW,321,3.0,8.0,65,0.00,,,0.00,meteohub,2013-06-22 14:42:00,
2013-06-22 10:47:00,79.9,66.6,30.15,West,272,4.0,8.0,64,0.00,,,0.00,meteohub,2013-06-22 14:47:00,
2013-06-22 10:52:00,80.2,67.5,30.14,NW,309,4.0,11.0,65,0.00,,,0.00,meteohub,2013-06-22 14:52:00,
2013-06-22 10:57:00,80.4,66.7,30.15,NW,307,4.0,11.0,63,0.00,,,0.00,meteohub,2013-06-22 14:57:00,
2013-06-22 11:02:00,80.8,66.9,30.15,NNW,348,6.0,9.0,63,0.00,,,0.00,meteohub,2013-06-22 15:02:00,
2013-06-22 11:07:00,80.8,66.6,30.15,NW,313,3.0,9.0,62,0.00,,,0.00,meteohub,2013-06-22 15:07:00,
2013-06-22 11:12:00,81.0,67.1,30.14,WNW,296,2.0,9.0,63,0.00,,,0.00,meteohub,2013-06-22 15:12:00,
2013-06-22 11:17:00,81.0,66.7,30.15,NNW,329,3.0,8.0,62,0.00,,,0.00,meteohub,2013-06-22 15:17:00,
2013-06-22 11:22:00,81.0,67.6,30.15,WNW,285,6.0,8.0,64,0.00,,,0.00,meteohub,2013-06-22 15:22:00,
2013-06-22 11:28:00,81.3,67.5,30.15,WNW,290,2.0,8.0,63,0.00,,,0.00,meteohub,2013-06-22 15:28:00,
2013-06-22 11:33:00,81.9,67.1,30.15,NNW,333,3.0,9.0,61,0.00,,,0.00,meteohub,2013-06-22 15:33:00,
2013-06-22 11:38:00,81.9,67.1,30.14,West,277,4.0,9.0,61,0.00,,,0.00,meteohub,2013-06-22 15:38:00,
2013-06-22 11:43:00,82.0,67.3,30.14,NW,315,3.0,10.0,61,0.00,,,0.00,meteohub,2013-06-22 15:43:00,
2013-06-22 11:48:00,82.0,66.7,30.14,WNW,294,4.0,10.0,60,0.00,,,0.00,meteohub,2013-06-22 15:48:00,
2013-06-22 11:53:00,82.2,67.8,30.14,WNW,294,3.0,12.0,62,0.00,,,0.00,meteohub,2013-06-22 15:53:00,
2013-06-22 11:58:00,82.4,68.0,30.14,WSW,242,3.0,12.0,62,0.00,,,0.00,meteohub,2013-06-22 15:58:00,
2013-06-22 12:03:00,82.4,68.5,30.14,WNW,286,4.0,11.0,63,0.00,,,0.00,meteohub,2013-06-22 16:03:00,
2013-06-22 12:08:00,82.8,68.4,30.14,NW,317,4.0,10.0,62,0.00,,,0.00,meteohub,2013-06-22 16:08:00,
2013-06-22 12:13:00,82.8,68.0,30.14,WNW,284,3.0,7.0,61,0.00,,,0.00,meteohub,2013-06-22 16:13:00,
2013-06-22 12:18:00,82.6,68.2,30.13,SW,236,4.0,7.0,62,0.00,,,0.00,meteohub,2013-06-22 16:18:00,
2013-06-22 12:23:00,82.6,68.2,30.13,NW,313,3.0,8.0,62,0.00,,,0.00,meteohub,2013-06-22 16:23:00,
2013-06-22 12:28:00,82.8,68.4,30.13,SSW,192,5.0,8.0,62,0.00,,,0.00,meteohub,2013-06-22 16:28:00,
2013-06-22 12:33:00,82.9,68.2,30.13,WNW,300,5.0,8.0,61,0.00,,,0.00,meteohub,2013-06-22 16:33:00,
2013-06-22 12:39:00,82.9,68.5,30.13,NW,307,7.0,9.0,62,0.00,,,0.00,meteohub,2013-06-22 16:39:00,
2013-06-22 12:44:00,82.9,68.5,30.12,West,262,6.0,13.0,62,0.00,,,0.00,meteohub,2013-06-22 16:44:00,
2013-06-22 12:49:00,83.1,68.4,30.12,NNW,346,2.0,13.0,61,0.00,,,0.00,meteohub,2013-06-22 16:49:00,
2013-06-22 12:54:00,83.7,69.8,30.12,WNW,294,5.0,13.0,63,0.00,,,0.00,meteohub,2013-06-22 16:54:00,
2013-06-22 12:59:00,83.8,69.4,30.12,NNW,331,3.0,9.0,62,0.00,,,0.00,meteohub,2013-06-22 16:59:00,
2013-06-22 13:04:00,84.2,70.2,30.12,West,261,2.0,8.0,63,0.00,,,0.00,meteohub,2013-06-22 17:04:00,
2013-06-22 13:09:00,84.6,70.5,30.12,NW,311,2.0,8.0,63,0.00,,,0.00,meteohub,2013-06-22 17:09:00,
2013-06-22 13:14:00,84.9,69.4,30.12,WNW,284,3.0,8.0,60,0.00,,,0.00,meteohub,2013-06-22 17:14:00,
2013-06-22 13:19:00,84.7,69.3,30.11,WSW,257,2.0,9.0,60,0.00,,,0.00,meteohub,2013-06-22 17:19:00,
2013-06-22 13:24:00,84.9,69.4,30.11,NNW,331,2.0,9.0,60,0.00,,,0.00,meteohub,2013-06-22 17:24:00,
2013-06-22 13:29:00,84.7,69.8,30.11,North,0,2.0,10.0,61,0.00,,,0.00,meteohub,2013-06-22 17:29:00,
2013-06-22 13:34:00,84.9,70.0,30.11,West,265,7.0,10.0,61,0.00,,,0.00,meteohub,2013-06-22 17:34:00,
2013-06-22 13:39:00,84.9,69.4,30.11,NNW,345,1.0,10.0,60,0.00,,,0.00,meteohub,2013-06-22 17:39:00,
2013-06-22 13:45:00,84.7,69.8,30.11,WSW,245,5.0,10.0,61,0.00,,,0.00,meteohub,2013-06-22 17:45:00,
2013-06-22 13:50:00,84.9,70.5,30.11,WNW,291,1.0,10.0,62,0.00,,,0.00,meteohub,2013-06-22 17:50:00,
2013-06-22 13:55:00,84.9,69.4,30.11,NNW,330,3.0,9.0,60,0.00,,,0.00,meteohub,2013-06-22 17:55:00,
2013-06-22 14:00:00,84.9,70.9,30.11,WNW,292,0.0,6.0,63,0.00,,,0.00,meteohub,2013-06-22 18:00:00,
2013-06-22 14:05:00,85.3,69.3,30.11,NNW,329,1.0,5.0,59,0.00,,,0.00,meteohub,2013-06-22 18:05:00,
2013-06-22 14:10:00,85.3,69.8,30.11,West,279,3.0,6.0,60,0.00,,,0.00,meteohub,2013-06-22 18:10:00,
2013-06-22 14:15:00,85.1,69.6,30.11,WNW,298,2.0,7.0,60,0.00,,,0.00,meteohub,2013-06-22 18:15:00,
2013-06-22 14:20:00,85.1,70.2,30.11,NW,306,3.0,7.0,61,0.00,,,0.00,meteohub,2013-06-22 18:20:00,
2013-06-22 14:25:00,85.6,69.6,30.11,SW,223,3.0,6.0,59,0.00,,,0.00,meteohub,2013-06-22 18:25:00,
2013-06-22 14:30:00,85.6,69.6,30.11,WNW,286,4.0,6.0,59,0.00,,,0.00,meteohub,2013-06-22 18:30:00,
2013-06-22 14:35:00,85.5,70.5,30.11,NW,305,3.0,7.0,61,0.00,,,0.00,meteohub,2013-06-22 18:35:00,
2013-06-22 14:40:00,85.5,69.4,30.11,WSW,244,4.0,10.0,59,0.00,,,0.00,meteohub,2013-06-22 18:40:00,
2013-06-22 14:45:00,85.6,69.6,30.11,West,270,1.0,10.0,59,0.00,,,0.00,meteohub,2013-06-22 18:45:00,
2013-06-22 14:50:00,86.2,71.1,30.10,WNW,300,5.0,10.0,61,0.00,,,0.00,meteohub,2013-06-22 18:50:00,
2013-06-22 14:55:00,86.4,70.3,30.10,WNW,302,1.0,8.0,59,0.00,,,0.00,meteohub,2013-06-22 18:55:00,
2013-06-22 15:01:00,86.2,70.7,30.10,WNW,302,2.0,8.0,60,0.00,,,0.00,meteohub,2013-06-22 19:01:00,
2013-06-22 15:06:00,86.2,69.6,30.10,West,268,2.0,8.0,58,0.00,,,0.00,meteohub,2013-06-22 19:06:00,
2013-06-22 15:11:00,86.2,70.7,30.09,NW,309,4.0,5.0,60,0.00,,,0.00,meteohub,2013-06-22 19:11:00,
2013-06-22 15:16:00,86.0,70.0,30.09,WNW,299,2.0,7.0,59,0.00,,,0.00,meteohub,2013-06-22 19:16:00,
2013-06-22 15:21:00,85.8,69.8,30.09,NW,313,2.0,7.0,59,0.00,,,0.00,meteohub,2013-06-22 19:21:00,
2013-06-22 15:26:00,85.8,69.8,30.09,NW,308,1.0,5.0,59,0.00,,,0.00,meteohub,2013-06-22 19:26:00,
2013-06-22 15:31:00,85.8,69.8,30.09,WNW,291,0.0,5.0,59,0.00,,,0.00,meteohub,2013-06-22 19:31:00,
2013-06-22 15:36:00,86.0,69.4,30.09,WSW,246,7.0,7.0,58,0.00,,,0.00,meteohub,2013-06-22 19:36:00,
2013-06-22 15:41:00,85.8,68.9,30.08,WNW,302,2.0,8.0,57,0.00,,,0.00,meteohub,2013-06-22 19:41:00,
2013-06-22 15:46:00,85.6,70.2,30.08,WNW,301,0.0,8.0,60,0.00,,,0.00,meteohub,2013-06-22 19:46:00,
2013-06-22 15:51:00,86.0,68.9,30.08,WNW,292,1.0,8.0,57,0.00,,,0.00,meteohub,2013-06-22 19:51:00,
2013-06-22 15:56:00,86.4,69.8,30.07,WSW,257,2.0,8.0,58,0.00,,,0.00,meteohub,2013-06-22 19:56:00,
2013-06-22 16:01:00,86.5,69.4,30.06,West,272,2.0,8.0,57,0.00,,,0.00,meteohub,2013-06-22 20:01:00,
2013-06-22 16:06:00,86.4,69.3,30.06,NW,323,3.0,8.0,57,0.00,,,0.00,meteohub,2013-06-22 20:06:00,
2013-06-22 16:11:00,86.0,68.5,30.06,NW,310,2.0,8.0,56,0.00,,,0.00,meteohub,2013-06-22 20:11:00,
2013-06-22 16:16:00,85.5,69.1,30.06,WNW,282,3.0,10.0,58,0.00,,,0.00,meteohub,2013-06-22 20:16:00,
2013-06-22 16:22:00,85.3,68.9,30.06,SW,236,3.0,10.0,58,0.00,,,0.00,meteohub,2013-06-22 20:22:00,
2013-06-22 16:27:00,85.3,68.9,30.06,SW,234,1.0,12.0,58,0.00,,,0.00,meteohub,2013-06-22 20:27:00,
2013-06-22 16:32:00,85.3,69.8,30.05,WNW,288,3.0,12.0,60,0.00,,,0.00,meteohub,2013-06-22 20:32:00,
2013-06-22 16:37:00,84.9,68.9,30.05,WNW,283,4.0,12.0,59,0.00,,,0.00,meteohub,2013-06-22 20:37:00,
2013-06-22 16:42:00,84.9,68.9,30.05,West,267,1.0,8.0,59,0.00,,,0.00,meteohub,2013-06-22 20:42:00,
2013-06-22 16:47:00,85.1,70.2,30.05,South,176,3.0,6.0,61,0.00,,,0.00,meteohub,2013-06-22 20:47:00,
2013-06-22 16:52:00,84.9,68.9,30.04,WNW,285,4.0,6.0,59,0.00,,,0.00,meteohub,2013-06-22 20:52:00,
2013-06-22 16:57:00,84.9,68.5,30.04,WNW,284,1.0,7.0,58,0.00,,,0.00,meteohub,2013-06-22 20:57:00,
2013-06-22 17:02:00,84.7,69.3,30.04,West,267,1.0,9.0,60,0.00,,,0.00,meteohub,2013-06-22 21:02:00,
2013-06-22 17:07:00,84.7,69.3,30.04,WNW,284,1.0,9.0,60,0.00,,,0.00,meteohub,2013-06-22 21:07:00,
2013-06-22 17:12:00,84.7,69.3,30.04,WNW,300,2.0,8.0,60,0.00,,,0.00,meteohub,2013-06-22 21:12:00,
2013-06-22 17:17:00,84.7,69.8,30.04,SW,231,2.0,7.0,61,0.00,,,0.00,meteohub,2013-06-22 21:17:00,
2013-06-22 17:22:00,84.9,70.0,30.04,WNW,294,3.0,6.0,61,0.00,,,0.00,meteohub,2013-06-22 21:22:00,
2013-06-22 17:27:00,85.3,69.8,30.03,WNW,292,1.0,6.0,60,0.00,,,0.00,meteohub,2013-06-22 21:27:00,
2013-06-22 17:32:00,85.5,69.4,30.03,WNW,294,5.0,11.0,59,0.00,,,0.00,meteohub,2013-06-22 21:32:00,
2013-06-22 17:37:00,85.5,70.0,30.03,WSW,254,1.0,11.0,60,0.00,,,0.00,meteohub,2013-06-22 21:37:00,
2013-06-22 17:42:00,85.5,69.4,30.02,WNW,298,2.0,11.0,59,0.00,,,0.00,meteohub,2013-06-22 21:42:00,
2013-06-22 17:47:00,85.3,68.9,30.02,NW,309,3.0,10.0,58,0.00,,,0.00,meteohub,2013-06-22 21:47:00,
2013-06-22 17:52:00,84.9,68.9,30.02,WNW,292,3.0,10.0,59,0.00,,,0.00,meteohub,2013-06-22 21:52:00,
2013-06-22 17:57:00,84.9,70.5,30.02,SW,217,0.0,10.0,62,0.00,,,0.00,meteohub,2013-06-22 21:57:00,
2013-06-22 18:02:00,84.9,69.4,30.02,WNW,297,1.0,9.0,60,0.00,,,0.00,meteohub,2013-06-22 22:02:00,
2013-06-22 18:07:00,85.1,70.2,30.02,WNW,301,2.0,7.0,61,0.00,,,0.00,meteohub,2013-06-22 22:07:00,
2013-06-22 18:12:00,85.1,69.1,30.02,WNW,302,5.0,7.0,59,0.00,,,0.00,meteohub,2013-06-22 22:12:00,
2013-06-22 18:17:00,84.9,68.9,30.01,West,277,2.0,8.0,59,0.00,,,0.00,meteohub,2013-06-22 22:17:00,
2013-06-22 18:22:00,84.7,68.9,30.02,SW,219,4.0,8.0,59,0.00,,,0.00,meteohub,2013-06-22 22:22:00,
2013-06-22 18:27:00,84.6,69.1,30.02,West,261,1.0,9.0,60,0.00,,,0.00,meteohub,2013-06-22 22:27:00,
2013-06-22 18:32:00,84.6,69.6,30.03,NW,323,3.0,9.0,61,0.00,,,0.00,meteohub,2013-06-22 22:32:00,
2013-06-22 18:37:00,84.4,68.5,30.03,WNW,302,4.0,9.0,59,0.00,,,0.00,meteohub,2013-06-22 22:37:00,
2013-06-22 18:42:00,84.4,69.4,30.03,WNW,290,3.0,10.0,61,0.00,,,0.00,meteohub,2013-06-22 22:42:00,
2013-06-22 18:47:00,84.6,68.7,30.03,SSW,196,1.0,10.0,59,0.00,,,0.00,meteohub,2013-06-22 22:47:00,
2013-06-22 18:52:00,84.7,68.9,30.03,SW,233,3.0,9.0,59,0.00,,,0.00,meteohub,2013-06-22 22:52:00,
2013-06-22 18:57:00,84.7,68.9,30.03,NW,318,2.0,9.0,59,0.00,,,0.00,meteohub,2013-06-22 22:57:00,
2013-06-22 19:02:00,84.7,68.4,30.03,SW,219,5.0,8.0,58,0.00,,,0.00,meteohub,2013-06-22 23:02:00,
2013-06-22 19:07:00,84.7,68.9,30.03,West,261,4.0,10.0,59,0.00,,,0.00,meteohub,2013-06-22 23:07:00,
2013-06-22 19:12:00,84.6,68.7,30.03,WNW,282,3.0,10.0,59,0.00,,,0.00,meteohub,2013-06-22 23:12:00,
2013-06-22 19:17:00,84.6,69.1,30.03,SSW,196,2.0,10.0,60,0.00,,,0.00,meteohub,2013-06-22 23:17:00,
2013-06-22 19:22:00,84.4,68.5,30.02,South,175,4.0,7.0,59,0.00,,,0.00,meteohub,2013-06-22 23:22:00,
2013-06-22 19:27:00,84.0,68.7,30.02,WNW,286,0.0,6.0,60,0.00,,,0.00,meteohub,2013-06-22 23:27:00,
2013-06-22 19:33:00,84.0,69.1,30.02,WNW,286,3.0,6.0,61,0.00,,,0.00,meteohub,2013-06-22 23:33:00,
2013-06-22 19:38:00,83.8,68.9,30.03,West,277,1.0,6.0,61,0.00,,,0.00,meteohub,2013-06-22 23:38:00,
2013-06-22 19:43:00,83.7,68.7,30.03,NNW,328,2.0,6.0,61,0.00,,,0.00,meteohub,2013-06-22 23:43:00,
2013-06-22 19:48:00,83.3,68.9,30.03,West,278,0.0,6.0,62,0.00,,,0.00,meteohub,2013-06-22 23:48:00,
2013-06-22 19:53:00,83.1,69.3,30.03,WNW,299,1.0,6.0,63,0.00,,,0.00,meteohub,2013-06-22 23:53:00,
2013-06-22 19:58:00,82.9,69.1,30.03,WNW,297,1.0,5.0,63,0.00,,,0.00,meteohub,2013-06-22 23:58:00,
2013-06-22 20:03:00,82.8,68.9,30.03,West,279,3.0,5.0,63,0.00,,,0.00,meteohub,2013-06-23 00:03:00,
2013-06-22 20:08:00,82.6,68.7,30.03,WNW,300,4.0,5.0,63,0.00,,,0.00,meteohub,2013-06-23 00:08:00,
2013-06-22 20:13:00,82.2,68.4,30.03,West,279,0.0,7.0,63,0.00,,,0.00,meteohub,2013-06-23 00:13:00,
2013-06-22 20:18:00,81.9,68.0,30.03,NW,310,2.0,7.0,63,0.00,,,0.00,meteohub,2013-06-23 00:18:00,
2013-06-22 20:23:00,81.7,67.8,30.03,WNW,290,2.0,7.0,63,0.00,,,0.00,meteohub,2013-06-23 00:23:00,
2013-06-22 20:28:00,81.3,68.0,30.03,WNW,288,1.0,6.0,64,0.00,,,0.00,meteohub,2013-06-23 00:28:00,
2013-06-22 20:33:00,81.0,67.6,30.03,West,279,1.0,6.0,64,0.00,,,0.00,meteohub,2013-06-23 00:33:00,
2013-06-22 20:38:00,80.8,68.0,30.04,NW,304,2.0,6.0,65,0.00,,,0.00,meteohub,2013-06-23 00:38:00,
2013-06-22 20:44:00,80.2,67.5,30.04,WNW,299,1.0,4.0,65,0.00,,,0.00,meteohub,2013-06-23 00:44:00,
2013-06-22 20:49:00,80.1,67.6,30.04,WNW,298,2.0,5.0,66,0.00,,,0.00,meteohub,2013-06-23 00:49:00,
2013-06-22 20:54:00,79.9,67.5,30.04,West,281,4.0,5.0,66,0.00,,,0.00,meteohub,2013-06-23 00:54:00,
2013-06-22 20:59:00,79.9,67.5,30.03,West,275,1.0,7.0,66,0.00,,,0.00,meteohub,2013-06-23 00:59:00,
2013-06-22 21:04:00,79.5,67.1,30.03,NW,320,1.0,7.0,66,0.00,,,0.00,meteohub,2013-06-23 01:04:00,
2013-06-22 21:09:00,79.3,67.5,30.03,NW,306,2.0,7.0,67,0.00,,,0.00,meteohub,2013-06-23 01:09:00,
2013-06-22 21:14:00,79.2,67.3,30.04,WNW,284,2.0,5.0,67,0.00,,,0.00,meteohub,2013-06-23 01:14:00,
2013-06-22 21:19:00,79.0,67.1,30.04,West,272,1.0,5.0,67,0.00,,,0.00,meteohub,2013-06-23 01:19:00,
2013-06-22 21:24:00,78.8,66.9,30.04,WNW,282,0.0,4.0,67,0.00,,,0.00,meteohub,2013-06-23 01:24:00,
2013-06-22 21:29:00,78.6,67.1,30.04,NW,312,2.0,5.0,68,0.00,,,0.00,meteohub,2013-06-23 01:29:00,
2013-06-22 21:34:00,78.4,66.9,30.04,WNW,292,2.0,5.0,68,0.00,,,0.00,meteohub,2013-06-23 01:34:00,
2013-06-22 21:39:00,78.3,66.7,30.04,WNW,290,0.0,4.0,68,0.00,,,0.00,meteohub,2013-06-23 01:39:00,
2013-06-22 21:44:00,78.1,67.1,30.04,NW,306,3.0,4.0,69,0.00,,,0.00,meteohub,2013-06-23 01:44:00,
2013-06-22 21:49:00,77.7,66.7,30.04,WNW,295,3.0,4.0,69,0.00,,,0.00,meteohub,2013-06-23 01:49:00,
2013-06-22 21:54:00,77.7,67.1,30.04,WNW,298,0.0,4.0,70,0.00,,,0.00,meteohub,2013-06-23 01:54:00,
2013-06-22 21:59:00,77.5,66.9,30.05,WNW,298,1.0,6.0,70,0.00,,,0.00,meteohub,2013-06-23 01:59:00,
2013-06-22 22:05:00,77.2,66.6,30.05,WNW,298,2.0,6.0,70,0.00,,,0.00,meteohub,2013-06-23 02:05:00,
2013-06-22 22:10:00,77.2,66.6,30.05,WNW,298,0.0,4.0,70,0.00,,,0.00,meteohub,2013-06-23 02:10:00,
2013-06-22 22:15:00,77.0,66.9,30.06,WNW,298,0.0,3.0,71,0.00,,,0.00,meteohub,2013-06-23 02:15:00,
2013-06-22 22:20:00,76.8,66.7,30.06,NW,304,2.0,3.0,71,0.00,,,0.00,meteohub,2013-06-23 02:20:00,
2013-06-22 22:25:00,76.6,66.9,30.06,NW,304,1.0,3.0,72,0.00,,,0.00,meteohub,2013-06-23 02:25:00,
2013-06-22 22:30:00,76.3,66.6,30.06,NW,304,0.0,3.0,72,0.00,,,0.00,meteohub,2013-06-23 02:30:00,
2013-06-22 22:35:00,76.1,66.7,30.07,NW,304,0.0,2.0,73,0.00,,,0.00,meteohub,2013-06-23 02:35:00,
2013-06-22 22:40:00,75.9,66.6,30.07,NW,304,1.0,2.0,73,0.00,,,0.00,meteohub,2013-06-23 02:40:00,
2013-06-22 22:45:00,75.6,66.7,30.07,NW,304,1.0,2.0,74,0.00,,,0.00,meteohub,2013-06-23 02:45:00,
2013-06-22 22:50:00,75.4,66.6,30.07,NW,304,0.0,2.0,74,0.00,,,0.00,meteohub,2013-06-23 02:50:00,
2013-06-22 22:55:00,75.2,66.7,30.07,NW,304,2.0,2.0,75,0.00,,,0.00,meteohub,2013-06-23 02:55:00,
2013-06-22 23:00:00,74.8,66.4,30.07,NW,304,1.0,2.0,75,0.00,,,0.00,meteohub,2013-06-23 03:00:00,
2013-06-22 23:06:00,74.8,66.7,30.07,NW,304,1.0,2.0,76,0.00,,,0.00,meteohub,2013-06-23 03:06:00,
2013-06-22 23:11:00,74.7,66.6,30.07,NW,304,0.0,2.0,76,0.00,,,0.00,meteohub,2013-06-23 03:11:00,
2013-06-22 23:16:00,74.7,66.9,30.07,NW,304,0.0,2.0,77,0.00,,,0.00,meteohub,2013-06-23 03:16:00,
2013-06-22 23:21:00,74.5,66.7,30.08,NW,304,0.0,2.0,77,0.00,,,0.00,meteohub,2013-06-23 03:21:00,
2013-06-22 23:26:00,74.1,66.7,30.08,NW,304,0.0,2.0,78,0.00,,,0.00,meteohub,2013-06-23 03:26:00,
2013-06-22 23:31:00,73.9,66.6,30.08,NW,304,0.0,1.0,78,0.00,,,0.00,meteohub,2013-06-23 03:31:00,
2013-06-22 23:36:00,73.8,66.9,30.07,NW,304,0.0,0.0,79,0.00,,,0.00,meteohub,2013-06-23 03:36:00,
2013-06-22 23:41:00,73.4,66.6,30.07,NW,304,1.0,0.0,79,0.00,,,0.00,meteohub,2013-06-23 03:41:00,
2013-06-22 23:46:00,72.9,66.7,30.07,NW,304,1.0,2.0,81,0.00,,,0.00,meteohub,2013-06-23 03:46:00,
2013-06-22 23:51:00,72.1,66.7,30.07,NW,304,0.0,2.0,83,0.00,,,0.00,meteohub,2013-06-23 03:51:00,
2013-06-22 23:56:00,71.8,66.7,30.07,NW,304,0.0,2.0,84,0.00,,,0.00,meteohub,2013-06-23 03:56:00,